Location: Bancigny
(49.8009°N, 4.0335°E)
Time: 14:11:32
(UTC+00:00)

Daily predictions for brighter satellites

Satellite Brightness Start Highest point End
(mag) Time Altitude Azimuth Time Altitude Azimuth Time Altitude Azimuth
CENTAUR R/B 4.1 20:37:05 10° ESE 20:39:08 12° E 20:41:20 10° E
Cosmos 1862 Rocket 3.7 20:36:36 10° SSW 20:41:02 81° W 20:45:31 10° N
Cosmos 1703 Rocket 4.3 20:37:18 10° SSE 20:41:22 36° E 20:45:26 10° NNE
Cosmos 1356 Rocket 4.3 20:37:19 10° SSW 20:41:26 53° WNW 20:45:33 10° N
Okean O Rocket 3.7 20:40:46 10° SSW 20:44:18 24° W 20:47:50 10° NW
USA 245 4.0 20:41:32 10° SSE 20:45:59 89° ENE 20:51:31 10° NNW
Cosmos 2208 Rocket 4.1 20:41:03 10° NNW 20:46:14 69° ENE 20:51:23 10° SSE
Cosmos 371 Rocket 4.3 20:43:58 10° SSE 20:47:59 27° E 20:52:01 10° NE
Ariane Rocket 3.1 20:45:10 10° SSE 20:50:14 73° ENE 20:55:19 10° NNW
Cosmos 1242 Rocket 2.3 20:47:55 10° S 20:50:28 39° E 20:53:02 10° NNE
CZ-4C R/B 2.3 20:46:26 10° S 20:50:33 38° ESE 20:55:38 10° NE
Cosmos 2228 Rocket 4.1 20:46:23 10° SSW 20:50:49 50° WNW 20:55:18 10° N
Meteor 1-4 Rocket 2.5 20:48:26 10° SSW 20:51:24 63° WNW 20:54:25 10° N
Terra 1.9 20:50:43 10° SSE 20:55:26 85° WSW 21:00:12 10° NNW
Iridium 51 4.3 20:56:21 10° S 21:00:33 79° E 21:04:31 10° N
MOS 1 Rocket 3.6 20:55:33 10° SSE 21:00:52 89° WSW 21:05:58 10° NNW
Cosmos 1486 Rocket 4.5 20:56:15 10° S 21:01:03 40° ESE 21:05:55 10° NE
Cosmos 2360 Rocket 4.3 20:58:24 10° NW 21:02:29 21° W 21:06:33 10° SSW
Cosmos 1953 2.3 21:01:26 10° NNW 21:05:15 74° W 21:09:02 10° S
USA 234 3.9 21:01:16 10° ENE 21:06:56 31° SE 21:12:35 10° S
COSMOS 2428 3.0 21:01:31 10° NNW 21:07:12 69° WSW 21:12:52 10° SSE
SPOT 5 4.2 21:07:10 10° SSW 21:11:09 32° W 21:15:17 10° NNW
Cosmos 304 Rocket 4.4 21:10:06 10° S 21:14:27 37° ESE 21:18:52 10° NE
Cosmos 405 Rocket 4.5 21:12:02 10° NNE 21:14:54 20° ENE 21:17:43 10° ESE
BREEZE-M DEB (TANK) 2.8 21:13:39 10° W 21:16:10 85° S 21:21:58 10° E
USA 281 4.4 21:10:34 10° ESE 21:16:22 34° NE 21:22:10 10° NNW
BlueWalker 3 2.5 21:18:41 10° W 21:22:23 58° NNW 21:26:06 10° ENE
ERS-1 Rocket 4.1 21:22:40 10° SSW 21:27:23 40° W 21:32:07 10° NNW
Cosmos 1315 Rocket 4.0 21:24:20 10° SW 21:28:08 43° WNW 21:31:59 10° N
SL-4 R/B 3.5 21:26:53 10° W 21:29:53 22° SW 21:32:19 13° S
Cosmos 2084 Rocket 3.4 21:30:01 10° SSW 21:34:16 64° SE 21:38:22 10° NE
Cosmos 773 Rocket 4.0 21:29:33 10° NNW 21:34:45 88° ENE 21:39:00 16° SSE
Cosmos 1408 2.2 21:32:50 17° S 21:34:54 54° E 21:37:52 10° NNE
Cosmos 1908 Rocket 4.4 21:31:09 10° NNW 21:35:17 45° W 21:39:23 10° SSW
BREEZE-M DEB (TANK) 4.2 21:34:16 10° W 21:38:57 87° S 21:59:57 10° E
Cosmos 1782 Rocket 3.6 21:35:08 10° NNW 21:39:28 77° W 21:43:07 14° S
Cosmos 2242 Rocket 3.9 21:35:53 14° SSE 21:39:36 54° E 21:44:03 10° NNE
BREEZE-M DEB (TANK) 4.0 21:39:18 10° WSW 21:41:01 17° SSW 21:41:57 16° S
Cosmos 1300 Rocket 3.5 21:38:46 10° NNW 21:43:07 84° W 21:46:34 16° S
Cosmos 1709 Rocket 4.2 21:38:03 13° SSE 21:43:39 58° E 21:49:49 10° NNE
SL-16 R/B 3.2 21:39:30 10° NNW 21:44:52 39° NE 21:50:00 11° ESE
Cosmos 2237 Rocket 2.2 21:40:10 10° NNW 21:45:51 81° WSW 21:50:16 17° SSE
NOSS 3-2 (A) 4.4 21:48:36 17° SSE 21:51:00 23° ESE 21:55:31 10° ENE
Cosmos 2227 Rocket 2.7 21:47:45 15° S 21:51:59 40° ESE 21:57:14 10° NE
SJ 16-02 4.3 21:55:22 10° W 21:58:04 16° NW 22:00:47 10° N
Cosmos 1455 4.4 21:56:19 10° NW 21:58:49 18° W 22:01:18 10° SW
H-2A R/B 3.7 21:56:06 15° ESE 21:58:58 31° ENE 22:02:39 10° N
Cosmos 1980 4.0 21:54:55 10° NW 22:00:30 61° WSW 22:04:42 18° S
EXPRESS MD2 2.6 21:59:15 10° W 22:01:26 33° SSW 22:01:35 33° SSW
GP-B 3.3 21:58:50 10° N 22:03:15 72° W 22:06:49 15° SSW
Landsat 5 3.9 21:59:35 10° N 22:03:42 64° WNW 22:07:55 10° SSW
Meteor 2-5 Rocket 3.9 21:59:20 16° S 22:03:57 62° E 22:09:39 10° NNE
Cosmos 1378 Rocket 4.4 22:02:31 20° SE 22:04:54 36° E 22:08:57 10° NNE
Cosmos 1777 Rocket 4.0 22:01:00 11° SSW 22:06:03 74° ESE 22:11:20 10° NNE
ARIANE 5 R/B 2.7 22:03:45 21° SSE 22:06:34 66° ENE 22:10:57 10° N
SeaSat 1 3.5 22:04:02 15° S 22:07:40 36° WSW 22:12:12 10° NW
Cosmos 1825 3.4 22:06:41 19° ESE 22:07:48 23° E 22:10:34 10° NE
COSMOS 2455 3.4 22:02:15 10° SW 22:08:14 63° NW 22:14:15 10° NNE
Cosmos 1674 Rocket 4.5 22:07:23 21° SE 22:09:34 33° E 22:13:28 10° NNE
Cosmos 2297 Rocket 2.2 22:05:06 10° SSW 22:10:45 87° WNW 22:16:27 10° NNE
Cosmos 1703 3.0 22:10:39 20° S 22:13:04 88° WNW 22:16:46 10° N
Cosmos 1503 Rocket 4.1 22:12:26 10° SSW 22:17:45 78° WNW 22:23:03 10° NNE
Cosmos 1538 Rocket 4.4 22:14:03 10° NNW 22:19:13 58° ENE 22:22:52 19° SE
SL-23 DEB 4.5 22:22:33 10° SW 22:26:35 62° SSE 22:33:30 10° ENE
Cosmos 1461 3.9 22:26:32 24° SE 22:27:07 25° ESE 22:30:19 10° ENE
Cosmos 2219 3.7 22:23:58 22° SSE 22:27:08 41° ESE 22:32:22 10° NE
CENTAUR R/B 2.5 22:22:27 10° SSW 22:27:59 64° SE 22:34:59 10° NE
Cosmos 371 Rocket 4.3 22:23:28 10° SW 22:28:04 45° WNW 22:32:44 10° NNE
Cosmos 1818 3.9 22:23:00 10° NW 22:28:30 63° NE 22:32:53 16° SE
Cosmos 2263 Rocket 3.1 22:27:07 21° SSE 22:29:42 31° ESE 22:34:33 10° NE
Cosmos 2151 Rocket 3.5 22:26:58 10° N 22:31:23 80° E 22:33:47 26° SSE
Cosmos 1892 2.8 22:31:14 31° SSE 22:32:35 51° E 22:36:02 10° NNE
Terra 4.3 22:32:04 10° WSW 22:33:46 12° W 22:35:29 10° WNW
Okean 2 Rocket 3.1 22:31:18 10° N 22:35:49 81° E 22:38:18 26° SSE
Meteor 1-24 Rocket 3.8 22:32:42 16° SSW 22:37:21 76° WNW 22:42:51 10° N
Cosmos 1263 4.4 22:35:33 10° N 22:38:37 56° ENE 22:39:31 37° SE
CZ-4C R/B 3.2 22:34:11 10° WSW 22:38:48 46° NW 22:44:40 10° NE
ALOS 2 2.8 22:46:36 26° SE 22:48:58 63° ENE 22:53:20 10° N
Cosmos 405 Rocket 3.7 22:46:38 10° NNW 22:50:09 37° W 22:51:59 22° SSW
Cosmos 1898 Rocket 4.3 22:48:08 24° SSE 22:50:23 35° ESE 22:55:03 10° NE
USA 234 3.2 22:43:57 10° ENE 22:50:32 85° SSE 22:57:06 10° WSW
Cosmos 292 Rocket 4.2 22:49:43 27° SSE 22:51:54 45° ESE 22:56:31 10° NE
H-2A R/B 3.7 22:52:43 10° NE 22:55:41 19° E 22:57:02 16° ESE
PSLV R/B 4.0 22:51:59 10° N 22:55:57 68° WNW 22:58:16 24° SSW
USA 281 3.3 22:56:14 23° S 23:00:30 67° WSW 23:07:06 10° NNW
BlueWalker 3 2.7 22:57:14 10° WNW 23:00:54 51° N 23:04:34 10° E
MINOTAUR 4 R/B 4.1 22:58:13 10° N 23:01:02 50° WNW 23:02:07 30° SW
Cosmos 2074 Rocket 4.0 22:58:51 24° S 23:02:51 78° E 23:09:06 10° NNE
Cosmos 2181 Rocket 4.3 22:59:14 10° NNW 23:05:17 59° W 23:09:14 22° SSW
Aureole 1 Rocket 3.3 23:05:07 31° S 23:06:57 59° ESE 23:12:04 10° NNE
Cosmos 990 Rocket 3.9 23:04:48 21° SSW 23:08:20 84° WNW 23:13:31 10° NNE
TIMED 4.5 23:08:03 30° S 23:10:04 69° ESE 23:14:23 10° NNE
Cosmos 2221 Rocket 3.8 23:07:37 25° SSW 23:10:08 68° WNW 23:14:34 10° N
Cosmos 1328 3.7 23:09:17 35° S 23:10:51 79° E 23:14:44 10° NNE
Okean 1 Rocket 3.2 23:07:39 10° NNW 23:12:01 68° W 23:14:06 30° S
Sich 1 Rocket 4.4 23:10:53 10° NNW 23:15:00 42° W 23:17:10 24° SSW
Cosmos 1295 Rocket 4.4 23:12:40 24° S 23:16:30 86° E 23:22:44 10° N
Meteor 1-21 Rocket 4.3 23:21:20 27° S 23:24:31 68° E 23:30:06 10° NNE
Cosmos 1680 Rocket 3.7 23:19:46 10° NNW 23:24:58 68° ENE 23:28:15 23° SE
Cosmos 1025 Rocket 2.9 23:23:54 32° S 23:25:51 85° E 23:30:09 10° N
Cosmos 2237 Rocket 4.3 23:26:04 10° WNW 23:28:58 14° W 23:31:52 10° SW
SL-16 R/B 2.8 23:23:40 10° NW 23:29:02 43° WSW 23:31:50 25° SSW
Cosmos 372 Rocket 4.1 23:26:39 29° S 23:29:17 63° ESE 23:34:26 10° NNE
Cosmos 2112 Rocket 4.2 23:26:09 10° NNW 23:31:20 66° ENE 23:34:41 22° SE
Cosmos 1975 Rocket 3.4 23:31:37 30° SSE 23:33:29 53° E 23:37:48 10° NNE
H-2A R/B 3.7 23:32:04 22° SW 23:33:51 31° W 23:37:35 10° NNW
Cosmos 1606 3.6 23:30:50 10° N 23:34:11 36° ENE 23:35:43 24° ESE
Cosmos 1943 3.2 23:29:00 10° NNW 23:34:39 78° ENE 23:38:26 21° SE
Cosmos 1603 4.3 23:29:08 10° NNW 23:34:47 54° NE 23:39:41 14° SE
Cosmos 2227 Rocket 3.3 23:30:40 10° WSW 23:36:02 42° NW 23:41:25 10° NNE
Nadezhda 3 Rocket 4.1 23:33:35 10° NNW 23:39:47 68° W 23:43:26 26° S
Cosmos 2082 3.7 23:36:07 22° SSW 23:39:49 88° WNW 23:45:30 10° NNE
Cosmos 1455 Rocket 3.0 23:35:43 10° NNW 23:40:12 80° W 23:42:11 33° S
NOSS 3-2 (A) 3.4 23:35:54 11° SW 23:40:58 74° NW 23:47:23 10° NE
Cosmos 1825 3.7 23:40:07 17° WSW 23:41:53 25° WNW 23:44:47 10° NNW
BREEZE-M DEB (TANK) 3.4 23:41:17 10° W 23:44:05 85° S 23:51:12 10° E
Meteor 2-1 Rocket 4.3 23:40:09 10° N 23:46:03 77° ENE 23:49:33 25° SSE
NOSS 3-2 (C) 3.2 23:49:29 25° SSW 23:52:43 72° SE 23:59:00 10° NE
Cosmos 2228 3.9 23:49:22 10° N 23:53:28 41° ENE 23:55:54 21° SE
Cosmos 2297 Rocket 4.5 23:51:19 10° W 23:55:38 22° NW 23:59:58 10° N
